Simultaneous Nadir Overpasses (SNOs) Predictions

Prediction of SNOs between AURA and NPP Satellite Orbit:

Table of predicted SNOs for the next 14.0 days since TLE Epoch: 1/8/2018
Index Date (AURA) Time (AURA) Lat,Lon (AURA) SZA (AURA ) Date (NPP) Time (NPP) Lat,Lon (NPP) SZA (NPP ) Distance(km) Time Diff (sec)
1 01/09/2018 03:41:51 -79.66,-157.36 65.82 01/09/2018 03:41:38 -79.66,-157.44 65.79 1.65 13
2 01/09/2018 04:31:10 79.92, 12.27 113.80 01/09/2018 04:32:14 79.92, 12.30 113.75 0.56 64
3 01/11/2018 19:08:56 79.56, 150.18 113.99 01/11/2018 19:07:48 79.56, 150.25 114.02 1.57 68
4 01/11/2018 19:58:18 -79.75, -40.82 66.29 01/11/2018 19:58:28 -79.74, -40.92 66.28 2.10 10
5 01/14/2018 11:25:24 79.64, -93.35 113.47 01/14/2018 11:24:39 79.65, -93.26 113.48 1.92 45
6 01/14/2018 12:14:47 -79.79, 75.41 66.76 01/14/2018 12:15:20 -79.79, 75.31 66.77 2.04 33
7 01/17/2018 03:41:52 79.72, 23.10 112.90 01/17/2018 03:41:30 79.73, 23.23 112.89 2.81 22
8 01/17/2018 04:31:15 -79.87,-168.11 67.33 01/17/2018 04:32:11 -79.87,-168.18 67.36 1.43 56
9 01/19/2018 19:10:18 -76.18, -45.68 63.20 01/19/2018 19:09:04 -76.41, -46.88 62.98 40.89 74




NCC Satellite Simultaneous Nadir Overpasses (SNOs) Prediction Service
